TITAN 3C TRANSTAGE DEB, 38705

Orbit data source: Space-Track

TITAN 3C TRANSTAGE DEB, 38705 is space debris in GEO originally from a launch on Thu, 26 Sep 1968 UTC launched from the Air Force Eastern Test Range (AFETR). Debris objects in space refer to the collection of defunct objects orbiting the Earth. Examples of debris include non-operational satellites, rocket bodies, and fragments generated from explosions, collisions, or faulty payload assembly.

Not visible in the next 10 days
Identifier
38705, 1968-081AF
Orbit
GEO
Country
Flag of USUS
Related business
Manufacturer
Unknown
Mission
Spacecraft
Bus & Motor
Unknown
Mass
Unknown
Launch date (UTC)
1968-09-26 (58 years ago)
Launch vehicle
Unknown
Launch site
Air Force Eastern Test Range (AFETR)
Object type
Payload
Rocket body
Debris
Shape & HBR
Unknown shape, 1.1 m
Radar Cross Section
Large (>1 m²)

Expand to show TLE details & history
Last TLE update: 1 day ago

TLE from 1 day ago
0 TITAN 3C TRANSTAGE DEB
1 38705U 68081AF  26257.25434358 -.00000069  00000-0  00000-0 0  9998
2 38705   3.3909  61.0747 0286696   1.6042 358.8052  1.02088360 75971
Epoch: 2026-09-14T06:06Z
TLE epoch observation values (Epoch: 2026-09-14T06:06:15.285Z)
Latitude
Longitude
-23.38674°
Altitude
34,094.369 km
Speed
3.183 km/s
True Right ascension
04h 05m 39s
True Declination
0° 00' 00"
Sunlit
Object was in daylight at epoch
Visualization orbit readout
Latitude
Unknown
Longitude
Unknown
Altitude
Unknown
Speed
Unknown
Apparent Right ascension
Unknown
Apparent Declination
Unknown
Sunlit
N/A
Visualization observer readout
Local Sidereal Time
03:22:23
Azimuth
Unknown
Elevation
Unknown
Doppler factor
Unknown
Orbital elements
Apogee altitude
36,480.482 km
Perigee altitude
34,091.494 km
Semi-major axis
41,664.125 km
Eccentricity
0.02867
Inclination
3.3909°
RAAN
61.0747°
Arg. of periapsis
1.6042°
True anomaly
358.73415°
Mean anomaly
358.8052°
Eccentric anomaly
358.76994°
Mean motion
0.25521 °/min
Orbital period
1,410.6 mins
BSTAR
0
Loading maneuver chart data...
Computing Atmospheric mass density...

Documentation

Showing up to 5 results
|